Time,TemperatureF,DewpointF,PressureIn,WindDirection,WindDirectionDegrees,WindSpeedMPH,WindSpeedGustMPH,Humidity,HourlyPrecipIn,Conditions,Clouds,dailyrainin,SoftwareType,DateUTC
2013-01-06 16:22:00,42.0,-99.9,29.96,West,266,5.0,9.0,-999,-99.99,,,-99.99,,2013-01-06 21:22:00,
2013-01-06 16:33:00,41.0,-99.9,29.96,WSW,255,6.0,9.0,-999,-99.99,,,-99.99,,2013-01-06 21:33:00,
2013-01-06 16:43:00,41.0,-99.9,29.96,WSW,254,4.0,8.0,-999,-99.99,,,-99.99,,2013-01-06 21:43:00,
2013-01-06 16:53:00,40.0,-99.9,29.96,WSW,254,5.0,8.0,-999,-99.99,,,-99.99,,2013-01-06 21:53:00,
2013-01-06 17:02:00,40.0,-99.9,29.96,West,260,6.0,8.0,-999,-99.99,,,-99.99,,2013-01-06 22:02:00,
2013-01-06 17:12:00,40.0,-99.9,29.96,West,262,4.0,9.0,-999,-99.99,,,-99.99,,2013-01-06 22:12:00,
2013-01-06 17:23:00,39.0,-99.9,29.96,West,276,3.0,9.0,-999,-99.99,,,-99.99,,2013-01-06 22:23:00,
2013-01-06 17:33:00,39.0,-99.9,29.96,West,262,4.0,7.0,-999,-99.99,,,-99.99,,2013-01-06 22:33:00,
2013-01-06 17:43:00,39.0,-99.9,29.96,WSW,257,5.0,8.0,-999,-99.99,,,-99.99,,2013-01-06 22:43:00,
2013-01-06 17:53:00,39.0,-99.9,29.96,West,260,3.0,6.0,-999,-99.99,,,-99.99,,2013-01-06 22:53:00,
2013-01-06 18:02:00,39.0,-99.9,29.97,WSW,253,4.0,7.0,-999,-99.99,,,-99.99,,2013-01-06 23:02:00,
2013-01-06 18:13:00,39.0,-99.9,29.97,WSW,255,4.0,7.0,-999,-99.99,,,-99.99,,2013-01-06 23:13:00,
2013-01-06 18:22:00,39.0,-99.9,29.98,WSW,257,3.0,6.0,-999,-99.99,,,-99.99,,2013-01-06 23:22:00,
2013-01-06 18:33:00,38.0,-99.9,29.98,West,272,2.0,7.0,-999,-99.99,,,-99.99,,2013-01-06 23:33:00,
2013-01-06 18:43:00,38.0,-99.9,29.98,West,264,2.0,5.0,-999,-99.99,,,-99.99,,2013-01-06 23:43:00,
2013-01-06 18:53:00,38.0,-99.9,29.98,West,264,2.0,6.0,-999,-99.99,,,-99.99,,2013-01-06 23:53:00,
2013-01-06 19:03:00,38.0,-99.9,29.98,WNW,298,3.0,4.0,-999,-99.99,,,-99.99,,2013-01-07 00:03:00,
2013-01-06 19:12:00,38.0,-99.9,29.98,WNW,289,3.0,5.0,-999,-99.99,,,-99.99,,2013-01-07 00:12:00,
2013-01-06 19:23:00,38.0,-99.9,29.98,West,263,2.0,5.0,-999,-99.99,,,-99.99,,2013-01-07 00:23:00,
2013-01-06 19:33:00,38.0,-99.9,29.98,West,280,3.0,5.0,-999,-99.99,,,-99.99,,2013-01-07 00:33:00,
2013-01-06 19:43:00,38.0,-99.9,29.98,West,280,2.0,6.0,-999,-99.99,,,-99.99,,2013-01-07 00:43:00,
2013-01-06 19:53:00,38.0,-99.9,29.98,WNW,295,2.0,4.0,-999,-99.99,,,-99.99,,2013-01-07 00:53:00,
2013-01-06 20:03:00,37.0,-99.9,29.97,WSW,255,2.0,5.0,-999,-99.99,,,-99.99,,2013-01-07 01:03:00,
2013-01-06 20:12:00,37.0,-99.9,29.97,WSW,249,3.0,5.0,-999,-99.99,,,-99.99,,2013-01-07 01:12:00,
2013-01-06 20:23:00,37.0,-99.9,29.98,WNW,289,3.0,4.0,-999,-99.99,,,-99.99,,2013-01-07 01:23:00,
2013-01-06 20:32:00,37.0,-99.9,29.98,WSW,250,2.0,5.0,-999,-99.99,,,-99.99,,2013-01-07 01:32:00,
2013-01-06 20:43:00,37.0,-99.9,29.98,WSW,244,3.0,5.0,-999,-99.99,,,-99.99,,2013-01-07 01:43:00,
2013-01-06 20:53:00,37.0,-99.9,29.98,WSW,256,3.0,6.0,-999,-99.99,,,-99.99,,2013-01-07 01:53:00,
2013-01-06 21:02:00,36.0,-99.9,29.98,WNW,283,3.0,5.0,-999,-99.99,,,-99.99,,2013-01-07 02:02:00,
2013-01-06 21:12:00,36.0,-99.9,29.98,West,279,3.0,5.0,-999,-99.99,,,-99.99,,2013-01-07 02:12:00,
2013-01-06 21:23:00,36.0,-99.9,29.98,West,270,4.0,5.0,-999,-99.99,,,-99.99,,2013-01-07 02:23:00,
2013-01-06 21:33:00,37.0,-99.9,29.98,West,274,3.0,6.0,-999,-99.99,,,-99.99,,2013-01-07 02:33:00,
2013-01-06 21:43:00,37.0,-99.9,29.98,West,275,4.0,6.0,-999,-99.99,,,-99.99,,2013-01-07 02:43:00,
2013-01-06 21:53:00,36.0,-99.9,29.98,West,268,3.0,5.0,-999,-99.99,,,-99.99,,2013-01-07 02:53:00,
2013-01-06 22:03:00,36.0,-99.9,29.98,West,269,4.0,7.0,-999,-99.99,,,-99.99,,2013-01-07 03:03:00,
2013-01-06 22:12:00,36.0,-99.9,29.98,West,270,3.0,6.0,-999,-99.99,,,-99.99,,2013-01-07 03:12:00,
2013-01-06 22:23:00,36.0,-99.9,29.98,West,269,3.0,6.0,-999,-99.99,,,-99.99,,2013-01-07 03:23:00,
2013-01-06 22:33:00,36.0,-99.9,29.98,West,276,3.0,6.0,-999,-99.99,,,-99.99,,2013-01-07 03:33:00,
2013-01-06 22:43:00,36.0,-99.9,29.98,West,279,3.0,5.0,-999,-99.99,,,-99.99,,2013-01-07 03:43:00,
2013-01-06 22:53:00,36.0,-99.9,29.99,West,275,4.0,6.0,-999,-99.99,,,-99.99,,2013-01-07 03:53:00,
2013-01-06 23:02:00,36.0,-99.9,29.99,WNW,286,6.0,9.0,-999,-99.99,,,-99.99,,2013-01-07 04:02:00,
2013-01-06 23:13:00,36.0,-99.9,29.99,West,279,4.0,8.0,-999,-99.99,,,-99.99,,2013-01-07 04:13:00,
2013-01-06 23:22:00,36.0,-99.9,29.99,West,271,2.0,6.0,-999,-99.99,,,-99.99,,2013-01-07 04:22:00,
2013-01-06 23:33:00,36.0,-99.9,29.98,West,274,2.0,5.0,-999,-99.99,,,-99.99,,2013-01-07 04:33:00,
2013-01-06 23:42:00,36.0,-99.9,29.98,West,277,3.0,5.0,-999,-99.99,,,-99.99,,2013-01-07 04:42:00,
2013-01-06 23:53:00,36.0,-99.9,29.98,West,267,3.0,5.0,-999,-99.99,,,-99.99,,2013-01-07 04:53:00,